CAPE
0 0 0 0 0 0 0 0 0 0 224 103 107 140 108 97 32 0 0 15 28 1250 1466 1296 1248 823 647 550 193 6 0 0 0 0 0 0 2 41 5 35 100 277 396 288 158 2 0 0 0
0 0 0 0 0 0 0 0 0 34 283 176 80 47 4 0 4 15 0 0 42 648 1569 1260 1027 897 688 610 481 100 18 0 0 0 0 0 0 79 129 147 232 236 177 193 196 13 0 0 0
0 0 0 0 0 0 0 0 0 422 548 928 1171 471 101 7 3 17 27 21 354 1138 1558 1282 765 593 643 665 576 343 72 9 0 0 0 0 6 25 253 219 334 392 365 170 21 0 0 0 0
0 0 0 0 0 0 0 0 0 7 496 1628 1727 1235 448 112 229 698 1242 264 391 1619 1484 1025 513 424 440 601 646 532 340 170 62 29 5 3 23 40 111 359 391 501 574 488 191 0 0 0 0
0 0 0 0 0 0 0 0 0 25 615 1251 1255 1565 1003 527 605 657 727 1463 1620 1524 1298 433 227 137 207 438 593 560 445 253 161 35 0 0 8 21 45 107 204 274 408 401 227 1 0 0 0
0 0 0 0 0 0 0 0 0 0 120 647 907 1099 1266 1042 78 0 0 298 1688 1538 858 602 671 566 524 598 601 563 444 302 224 174 1 0 0 6 19 44 63 101 152 100 22 0 0 0 0
0 0 0 0 0 0 0 0 0 0 1 0 0 0 19 14 0 0 248 936 725 608 487 844 934 1061 1094 1162 1102 1042 921 730 595 462 168 0 0 6 18 22 40 76 82 73 56 41 0 0 0
0 0 0 0 0 0 0 0 0 0 0 0 0 0 0 0 0 141 254 369 37 74 291 48 99 201 412 533 941 988 897 926 791 631 508 335 177 84 110 147 98 68 78 72 84 82 46 11 0
0 0 0 0 0 0 0 0 0 0 0 0 0 0 0 0 0 0 0 0 0 8 99 0 0 0 115 283 344 816 872 731 750 746 749 705 525 427 462 424 224 145 123 100 92 42 7 0 0
0 0 0 0 0 0 0 0 0 0 0 0 0 0 0 0 0 0 0 0 0 0 0 0 0 0 0 291 365 823 398 242 437 354 272 364 184 139 143 133 207 242 261 197 150 78 46 56 12
0 0 0 0 0 0 0 0 0 0 0 0 0 0 0 0 0 0 0 0 0 0 0 0 0 0 0 0 96 292 319 403 257 387 277 243 123 77 152 212 236 498 580 639 484 254 223 83 21
0 0 0 0 0 0 0 0 0 0 0 0 0 0 0 0 0 0 0 0 0 0 0 0 0 0 0 0 0 0 0 0 107 216 411 264 195 232 289 255 132 103 349 340 326 320 215 166 137
0 0 0 0 0 0 0 0 0 0 0 0 0 0 0 0 0 0 0 0 0 0 0 0 0 0 0 0 0 0 0 0 0 0 467 508 446 265 237 310 365 390 302 328 364 297 283 239 232
0 0 0 0 0 0 0 0 0 0 0 0 0 0 0 0 0 0 0 0 0 0 0 0 0 0 0 0 0 0 0 0 0 0 0 31 276 176 108 21 0 0 78 182 449 352 288 346 407
0 0 0 0 0 0 0 0 0 0 0 0 0 0 0 0 0 0 0 0 0 0 0 0 0 0 0 0 0 0 0 0 0 0 0 0 0 0 0 0 0 0 0 357 583 597 552 620 530
0 0 0 0 0 0 0 0 0 0 0 0 0 0 0 0 0 0 0 0 0 0 0 0 0 0 0 0 0 0 0 0 0 0 0 0 0 0 0 5 14 81 11 428 937 874 864 720 514
0 0 0 0 0 0 0 0 0 0 0 0 0 0 0 0 0 0 0 0 0 0 0 0 0 0 0 0 0 0 0 0 0 0 0 0 0 0 0 0 19 89 197 645 902 870 611 436 200
0 0 0 0 0 0 0 0 0 0 0 0 0 0 0 0 0 0 0 0 0 0 0 0 0 0 0 0 0 0 0 0 0 0 0 0 0 0 0 0 0 0 36 466 935 886 674 582 598
0 0 0 0 0 0 0 0 0 0 0 0 0 0 0 0 0 0 0 0 0 0 0 0 0 0 0 0 0 0 0 0 0 0 0 0 0 0 0 0 0 0 0 13 250 798 654 708 760
0 0 0 0 0 0 0 0 0 0 0 0 0 0 0 0 0 0 0 0 0 0 0 0 0 0 0 0 0 0 0 0 0 0 0 0 0 0 0 0 0 0 0 0 19 149 620 546 572
0 0 0 0 0 0 0 0 0 0 0 0 0 0 0 0 0 0 0 0 0 0 0 0 0 0 0 0 0 0 0 0 0 0 0 0 0 0 0 0 0 0 0 0 0 0 67 457 632
0 0 0 0 0 0 0 0 0 0 0 0 0 0 0 0 0 0 0 0 0 0 0 0 0 0 0 0 0 0 0 0 0 0 0 0 0 0 0 0 0 0 0 0 0 63 128 168 264
0 0 0 0 0 0 0 0 0 0 0 0 0 0 0 0 0 0 0 0 0 0 0 0 0 0 0 0 0 0 0 0 0 0 0 0 0 0 0 0 0 0 0 0 0 0 0 110 233
0 0 0 0 0 0 0 0 0 0 0 0 0 0 2 0 0 0 0 0 0 0 0 0 0 0 0 0 0 0 0 0 0 0 0 0 0 0 0 0 0 0 0 0 0 0 0 0 11
0 0 0 0 0 0 0 0 0 0 0 0 0 1 0 0 0 0 0 0 0 0 0 0 0 0 0 0 0 0 0 0 0 0 0 0 0 0 0 0 0 0 0 0 0 0 0 0 41
0 0 0 0 0 0 0 0 0 0 0 0 0 0 0 0 0 0 0 0 0 0 0 0 0 0 0 0 0 0 0 0 0 0 0 0 0 2 0 0 0 0 0 1 9 5 1 0 13
0 0 0 0 0 0 0 0 0 0 0 0 0 0 0 0 0 0 0 0 0 0 0 0 0 0 0 0 0 0 0 0 0 0 0 0 0 2 0 0 0 0 0 3 0 0 0 0 0
0 0 0 0 0 0 0 0 0 0 0 0 0 0 0 0 0 0 0 0 0 0 0 0 0 0 0 0 0 0 0 0 0 1 1 0 1 2 2 1 2 1 0 1 0 0 0 0 0
0 0 0 0 0 0 0 0 0 0 0 0 0 0 0 0 0 0 0 0 0 0 0 0 0 0 0 0 0 0 0 0 1 2 1 0 1 0 4 4 4 2 1 1 6 3 3 3 0
0 0 0 0 0 0 0 0 0 0 0 0 0 0 0 0 0 0 0 0 0 0 0 0 0 0 0 0 0 0 0 6 0 2 2 1 2 3 1 1 1 1 2 2 2 1 6 6 5
CIN
0 0 0 0 0 0 0 0 0 0 -148 -277 -299 -193 -210 -317 -250 0 0 -295 -353 -166 -141 -159 -145 -212 -276 -314 -430 -285 0 0 0 0 0 0 -217 -399 -65 -367 -293 -207 -175 -184 -215 -110 0 0 0
0 0 0 0 0 0 0 0 0 -99 -231 -255 -273 -248 -40 0 -287 -398 0 0 -434 -278 -183 -194 -205 -219 -270 -300 -339 -468 -558 0 0 0 0 0 0 -346 -301 -272 -232 -217 -224 -207 -194 -304 0 0 0
0 0 0 0 0 0 0 0 0 -168 -187 -119 -123 -190 -203 -18 -141 -411 -293 -220 -304 -256 -201 -191 -255 -272 -315 -295 -309 -354 -472 -353 0 0 0 0 -288 -369 -242 -236 -187 -165 -165 -195 -253 0 0 0 0
0 0 0 0 0 0 0 0 0 -34 -102 -58 -74 -70 -160 -359 -266 -253 -183 -282 -314 -230 -247 -263 -279 -308 -308 -311 -300 -317 -329 -376 -422 -420 -463 -425 -375 -334 -287 -198 -176 -147 -128 -136 -201 0 0 0 0
0 0 0 0 0 0 0 0 0 -76 -75 -37 -52 -34 -76 -247 -243 -181 -201 -170 -173 -226 -233 -269 -292 -314 -331 -318 -295 -293 -297 -306 -327 -370 0 0 -380 -337 -289 -266 -226 -188 -150 -146 -186 -41 0 0 0
0 0 0 0 0 0 0 0 0 0 -118 -73 -79 -84 -75 -149 -205 0 0 -257 -106 -173 -256 -264 -282 -306 -302 -277 -251 -248 -253 -268 -260 -264 -23 0 0 -378 -329 -294 -283 -260 -228 -249 -272 0 0 0 0
0 0 0 0 0 0 0 0 0 0 -53 -7 0 0 -16 -34 0 0 -130 -115 -170 -224 -250 -234 -212 -202 -186 -171 -179 -182 -185 -210 -208 -211 -265 0 0 -369 -335 -314 -299 -273 -257 -242 -248 -261 0 0 0
0 0 0 0 0 0 0 0 0 0 0 0 0 0 0 0 0 -428 -245 -257 -340 -372 -281 -345 -355 -345 -280 -257 -168 -165 -175 -181 -194 -207 -214 -229 -255 -295 -285 -262 -289 -295 -268 -258 -250 -247 -268 -177 0
0 0 0 0 0 0 0 0 0 0 0 0 0 0 0 0 0 0 0 0 0 -128 -214 0 0 0 -308 -288 -243 -175 -164 -169 -162 -174 -164 -160 -185 -201 -184 -188 -233 -259 -279 -289 -282 -294 -289 0 0
0 0 0 0 0 0 0 0 0 0 0 0 0 0 0 0 0 0 0 0 0 0 0 0 0 0 0 -228 -217 -168 -186 -188 -175 -193 -200 -194 -210 -238 -238 -260 -227 -225 -227 -241 -260 -286 -300 -278 -304
0 0 0 0 0 0 0 0 0 0 0 0 0 0 0 0 0 0 0 0 0 0 0 0 0 0 0 0 -263 -189 -163 -126 -164 -161 -165 -182 -212 -244 -236 -227 -219 -197 -159 -121 -135 -207 -222 -278 -131
0 0 0 0 0 0 0 0 0 0 0 0 0 0 0 0 0 0 0 0 0 0 0 0 0 0 0 0 0 0 0 0 -220 -180 -148 -159 -167 -166 -165 -182 -196 -233 -174 -182 -159 -154 -184 -214 -232
0 0 0 0 0 0 0 0 0 0 0 0 0 0 0 0 0 0 0 0 0 0 0 0 0 0 0 0 0 0 0 0 0 0 -137 -119 -131 -159 -166 -149 -107 -99 -139 -147 -154 -152 -143 -156 -178
0 0 0 0 0 0 0 0 0 0 0 0 0 0 0 0 0 0 0 0 0 0 0 0 0 0 0 0 0 0 0 0 0 0 0 -195 -148 -157 -182 -174 0 0 -188 -179 -122 -132 -110 -103 -121
0 0 0 0 0 0 0 0 0 0 0 0 0 0 0 0 0 0 0 0 0 0 0 0 0 0 0 0 0 0 0 0 0 0 0 0 0 0 0 0 0 0 0 -109 -92 -85 -88 -73 -105
0 0 0 0 0 0 0 0 0 0 0 0 0 0 0 0 0 0 0 0 0 0 0 0 0 0 0 0 0 0 0 0 0 0 0 0 0 0 0 -66 -44 -228 -37 -107 -42 -48 -36 -49 -69
0 0 0 0 0 0 0 0 0 0 0 0 0 0 0 0 0 0 0 0 0 0 0 0 0 0 0 0 0 0 0 0 0 0 0 0 0 0 0 0 -180 -210 -176 -79 -27 -21 -33 -46 -76
0 0 0 0 0 0 0 0 0 0 0 0 0 0 0 0 0 0 0 0 0 0 0 0 0 0 0 0 0 0 0 0 0 0 0 0 0 0 0 0 0 0 -213 -102 -31 -11 -26 -33 -41
0 0 0 0 0 0 0 0 0 0 0 0 0 0 0 0 0 0 0 0 0 0 0 0 0 0 0 0 0 0 0 0 0 0 0 0 0 0 0 0 0 0 0 -56 -115 -46 -18 -18 -37
0 0 0 0 0 0 0 0 0 0 0 0 0 0 0 0 0 0 0 0 0 0 0 0 0 0 0 0 0 0 0 0 0 0 0 0 0 0 0 0 0 0 0 0 -133 -139 -49 -33 -31
0 0 0 0 0 0 0 0 0 0 0 0 0 0 0 0 0 0 0 0 0 0 0 0 0 0 0 0 0 0 0 0 0 0 0 0 0 0 0 0 0 0 0 0 0 0 -142 -49 -34
0 0 0 0 0 0 0 0 0 0 0 0 0 0 0 0 0 0 0 0 0 0 0 0 0 0 0 0 0 0 0 0 0 0 0 0 0 0 0 0 0 0 0 0 0 -151 -109 -76 -47
0 0 0 0 0 0 0 0 0 0 0 0 0 0 0 0 0 0 0 0 0 0 0 0 0 0 0 0 0 0 0 0 0 0 0 0 0 0 0 0 0 0 0 0 0 0 0 -108 -48
0 0 0 0 0 0 0 0 0 0 0 0 0 0 -208 0 0 0 0 0 0 0 0 0 0 0 0 0 0 0 0 0 0 0 0 0 0 0 0 0 0 0 0 0 0 0 0 0 -110
0 0 0 0 0 0 0 0 0 0 0 0 -6 -69 0 0 0 0 0 0 0 0 0 0 0 0 0 0 0 0 0 0 0 0 0 0 0 0 0 0 0 0 0 0 0 0 0 0 -131
0 0 0 0 0 0 0 0 -0 0 0 0 0 0 0 0 0 0 0 0 0 0 0 0 0 0 0 0 0 0 0 0 0 0 0 0 0 -1 -0 -1 -1 0 0 -0 -1 -1 -0 0 -222
0 0 0 0 0 0 0 0 0 0 0 0 0 0 0 0 0 0 0 0 0 0 0 0 0 0 0 0 0 0 0 0 0 0 0 0 -0 -1 0 0 0 0 0 -5 -3 0 0 0 0
0 0 0 0 0 0 0 0 0 0 0 0 0 0 0 0 0 0 0 0 0 0 0 0 0 0 0 0 0 0 0 0 0 -0 -1 -0 -0 -1 -2 -2 -3 -6 -0 -10 -0 -1 0 0 0
0 0 0 0 0 0 0 0 0 0 0 0 0 0 0 0 0 0 0 0 0 0 0 0 0 0 0 0 0 0 0 0 -1 -0 -1 -0 -1 0 -0 -0 -0 -0 -0 -0 -1 -3 -1 -2 -2
0 0 0 0 0 0 0 0 0 0 0 -3 0 0 0 0 0 0 0 0 0 0 0 0 0 0 0 0 0 0 0 -0 -1 -1 -0 -0 -0 -0 0 -0 0 0 0 0 0 -2 -1 -1 -0
Wind_Speed
21 20 19 16 14 13 16 16 18 16 18 17 17 19 21 21 19 17 15 19 9 22 24 22 22 21 20 19 17 17 17 16 15 15 14 14 13 13 12 12 12 12 12 12 12 12 13 13 13
20 18 16 14 12 12 16 17 19 17 14 18 20 21 22 22 20 17 20 19 30 22 22 20 19 18 16 16 16 15 14 13 13 12 12 12 12 12 11 10 10 10 10 10 10 10 11 11 11
19 17 16 14 12 14 19 20 22 12 13 16 18 21 22 22 20 15 11 13 1 6 19 18 16 16 14 12 12 12 12 12 11 10 9 10 9 9 9 8 8 9 9 9 9 9 9 10 10
16 16 15 15 16 19 22 24 21 12 14 17 18 20 21 25 21 20 13 19 21 13 14 14 13 12 11 11 11 10 10 10 10 9 9 8 8 8 8 8 8 9 9 8 8 8 8 8 8
15 14 16 15 18 24 21 18 17 14 16 17 17 18 20 20 21 21 17 15 18 13 12 12 11 11 12 12 11 10 9 9 9 9 8 8 8 9 9 9 9 9 10 10 9 8 8 8 7
15 14 14 15 20 23 16 15 16 15 16 18 20 19 18 16 16 20 12 12 10 8 9 9 10 11 12 11 11 10 9 8 8 8 9 8 8 9 9 10 10 11 12 12 11 12 12 11 10
14 14 14 19 22 22 11 15 16 16 15 17 19 21 18 14 14 18 19 13 8 12 12 14 14 14 13 13 13 13 13 12 12 11 10 9 9 11 11 12 13 13 14 14 14 14 13 13 13
15 15 15 18 22 13 16 13 16 16 15 15 18 19 21 20 11 16 20 17 19 18 15 16 16 17 17 14 14 14 13 13 13 13 13 12 13 13 12 13 13 14 15 16 16 15 15 15 14
13 14 14 16 16 14 15 13 19 15 16 20 22 22 22 27 29 20 20 19 19 20 15 20 21 22 19 14 14 15 15 15 15 16 17 17 15 15 16 16 15 14 13 14 15 16 18 18 18
11 11 13 16 15 15 16 14 14 13 15 16 18 20 22 23 25 22 20 19 20 21 20 22 21 22 22 18 18 17 19 20 19 19 18 17 16 16 17 18 19 19 19 17 16 17 17 19 21
11 11 13 17 14 16 18 16 13 12 15 14 15 17 18 20 20 20 19 20 20 21 23 24 23 25 25 25 23 23 24 26 26 24 22 19 19 19 17 15 19 21 19 22 22 21 19 20 20
9 11 13 10 15 16 17 15 15 14 11 13 16 17 18 20 19 17 18 19 20 20 23 23 24 24 24 25 27 28 29 31 29 27 26 23 22 22 21 19 20 23 18 16 22 21 20 19 20
9 16 15 9 14 13 13 13 12 12 11 13 14 16 17 19 21 22 20 18 18 21 23 23 23 23 24 25 27 29 31 32 32 32 31 30 27 26 27 26 26 23 21 19 19 23 23 23 23
14 13 14 13 13 11 13 8 12 8 9 12 14 14 16 18 20 21 23 24 27 28 27 27 27 26 27 28 30 31 32 33 33 34 33 32 31 31 31 32 31 30 25 26 24 24 28 25 25
16 18 18 11 11 11 12 14 11 5 7 10 12 13 15 17 18 20 21 23 25 25 24 27 29 31 33 34 35 35 33 33 34 34 34 34 35 37 37 34 33 34 30 26 25 24 30 27 26
17 15 15 10 8 9 12 18 9 5 6 8 10 12 14 15 17 19 20 22 23 24 24 24 26 28 30 31 33 35 35 35 34 35 35 35 35 34 36 38 39 40 37 32 29 29 30 28 28
16 18 13 3 5 9 13 17 7 7 8 8 8 10 12 14 16 17 19 21 22 23 24 24 24 27 27 28 30 32 34 34 33 34 35 36 35 36 37 38 39 39 39 40 35 31 30 30 33
16 17 20 10 6 7 9 14 7 7 6 6 7 8 9 12 14 15 16 20 21 19 22 23 24 27 26 28 29 31 33 33 34 35 35 34 34 34 37 37 38 39 39 39 37 36 36 38 37
15 17 19 13 8 8 9 11 6 7 6 6 6 6 8 9 9 11 14 18 19 19 21 23 25 25 25 28 30 32 34 34 35 35 36 36 36 36 35 36 38 40 40 40 40 41 40 39 37
17 17 16 13 11 11 9 7 8 4 4 4 6 7 8 10 11 13 17 17 18 21 23 23 25 23 24 26 27 29 32 32 34 34 35 35 38 38 38 40 41 40 41 42 41 40 41 39 36
15 15 14 12 13 12 14 14 20 19 10 5 6 7 9 12 13 17 19 18 21 23 25 24 23 24 25 27 30 31 34 35 36 37 37 36 36 37 39 40 40 40 40 42 42 42 41 42 38
14 16 18 19 20 18 20 20 17 14 11 8 7 9 13 15 16 19 19 22 23 24 25 22 21 24 26 29 32 35 38 42 40 41 40 40 39 39 39 38 39 40 40 40 40 40 41 40 44
14 18 19 20 20 20 17 15 15 12 7 7 7 8 12 18 17 21 22 22 24 27 27 21 22 24 27 30 32 36 40 41 42 44 46 45 43 40 39 39 38 41 37 39 40 42 41 40 43
18 19 21 19 16 16 14 17 15 11 5 7 7 9 14 18 19 20 19 23 26 29 27 23 24 25 28 32 36 38 40 44 47 49 51 49 47 44 40 40 40 39 43 42 41 42 42 42 42
15 18 21 19 17 14 20 17 16 13 6 7 8 12 15 17 20 22 24 28 29 28 28 26 27 30 32 34 37 40 42 44 48 49 50 52 49 45 43 41 40 38 41 44 43 42 42 40 40
13 14 16 19 18 19 20 16 15 12 10 11 11 14 19 23 25 21 26 26 27 26 27 29 30 33 35 38 41 43 43 47 48 49 48 48 46 44 43 43 41 41 39 42 38 38 40 40 38
18 17 13 16 17 19 17 17 13 10 10 11 14 19 22 25 22 24 23 27 26 27 32 32 33 36 38 42 44 47 48 49 51 50 48 46 43 43 43 43 46 43 39 37 39 43 44 43 40
17 11 18 19 21 19 18 16 15 10 12 12 14 20 24 25 21 20 24 26 28 32 34 34 36 39 43 46 47 49 50 51 50 48 49 46 43 42 44 44 43 42 40 38 39 42 42 42 41
20 19 18 16 16 19 23 18 14 13 14 13 14 18 21 24 21 23 25 27 31 35 37 39 41 47 51 51 52 53 50 49 46 48 48 48 44 42 39 42 42 43 41 38 39 41 39 38 39
16 15 15 18 20 21 21 21 20 16 15 11 14 15 19 22 22 23 26 30 36 39 41 43 47 51 52 52 53 51 47 46 47 43 43 42 43 41 40 40 41 41 39 38 37 38 37 35 33
Wind_Direction
266 261 266 285 310 317 319 312 324 352 346 0 16 19 12 10 14 13 78 125 90 139 159 145 134 115 101 97 85 79 75 75 73 73 69 65 62 62 63 64 64 61 57 56 53 52 51 50 48
273 275 282 297 313 310 323 325 327 353 43 42 32 25 13 12 13 58 84 122 143 130 133 125 110 95 86 84 82 78 64 62 62 61 61 60 60 61 59 54 49 47 44 45 46 43 39 40 39
277 283 287 297 311 313 310 318 340 46 58 13 6 360 16 15 23 71 90 82 20 36 116 111 90 85 70 60 62 58 54 50 47 41 40 42 38 38 37 39 35 30 24 22 23 25 27 27 29
299 290 292 287 294 306 306 287 331 19 14 21 27 2 17 28 45 50 335 217 169 85 95 89 73 48 39 48 47 35 23 24 26 22 28 24 20 14 9 7 359 353 357 4 9 13 19 23 21
295 299 285 288 303 307 298 321 2 8 359 11 18 15 28 36 54 42 16 181 121 84 77 74 64 50 50 54 51 44 31 12 5 6 4 358 351 348 343 340 338 336 335 336 340 346 350 356 360
281 294 290 287 306 316 318 0 14 13 23 26 23 23 12 62 52 54 54 130 322 352 346 8 21 23 27 28 32 37 34 25 12 357 342 337 335 330 327 322 322 320 318 319 321 321 323 326 329
278 296 294 294 300 311 334 353 2 18 36 28 38 23 19 31 73 79 22 53 24 7 4 357 354 1 7 350 357 356 351 352 350 351 346 334 324 314 311 309 309 307 307 308 309 311 314 316 316
282 297 297 307 302 326 312 347 359 12 12 27 13 3 17 19 65 39 34 37 36 28 20 10 14 5 342 351 344 349 350 348 349 342 335 326 315 311 308 305 303 301 300 300 301 303 306 308 309
307 300 308 322 328 338 326 1 17 13 34 31 33 40 46 54 59 57 39 35 24 18 19 360 350 342 331 337 336 339 340 340 338 336 327 319 313 310 307 303 301 298 295 294 294 295 297 299 300
315 315 316 333 335 346 339 351 0 4 9 12 26 35 38 38 47 43 29 15 10 8 6 359 353 347 346 347 333 332 328 325 325 327 326 320 314 308 305 302 299 297 295 293 291 291 292 295 296
321 318 328 323 340 342 343 345 352 7 353 7 8 18 17 31 26 25 22 16 8 360 354 352 352 347 342 336 335 327 321 317 315 317 318 316 316 311 312 309 302 296 294 295 294 293 293 294 296
319 328 332 348 340 331 340 360 357 6 19 39 30 21 8 355 4 15 9 1 359 359 353 352 354 353 351 345 337 328 321 317 314 312 313 314 313 311 310 309 306 298 299 293 291 293 291 292 295
335 318 323 2 351 355 349 351 358 14 37 31 21 12 11 5 353 343 347 357 352 345 341 342 344 345 345 342 338 332 325 320 316 314 308 306 307 305 305 305 302 303 297 293 291 290 290 292 293
334 335 334 342 353 8 1 42 360 28 36 17 11 11 11 4 0 357 350 343 338 330 328 330 331 333 333 332 331 329 326 322 318 314 312 310 304 302 301 299 297 299 294 294 289 287 287 290 294
327 312 316 352 359 2 7 344 358 56 25 15 10 11 6 4 5 3 2 355 352 347 339 333 331 329 327 325 324 325 323 322 319 316 315 311 306 300 299 298 297 296 295 293 293 290 286 290 292
326 338 334 354 21 22 357 341 32 52 20 9 11 8 5 3 2 3 5 1 1 356 348 345 343 341 337 332 328 325 322 319 316 314 313 313 310 308 302 296 293 293 290 291 289 287 288 290 291
340 331 340 24 108 4 348 345 47 64 33 18 19 20 14 12 11 8 9 8 7 2 357 350 349 347 347 344 341 337 332 326 322 319 315 312 312 308 304 299 296 295 292 285 285 286 286 288 288
332 338 340 3 44 56 19 6 77 109 90 74 54 54 42 26 17 14 11 6 8 11 3 356 351 347 347 344 342 341 339 335 328 321 318 316 313 311 308 304 301 298 292 288 285 284 286 286 288
338 330 333 355 67 34 29 26 84 128 125 99 88 63 43 34 36 33 18 9 7 6 359 358 351 350 349 346 343 343 339 338 334 328 321 316 313 311 310 306 303 300 296 292 287 284 284 284 286
319 323 332 2 16 12 29 36 47 116 166 133 99 75 54 31 25 16 9 6 8 3 357 354 349 351 350 349 347 344 342 339 335 333 330 322 314 311 308 305 302 300 296 293 290 289 285 283 282
342 341 336 345 352 8 358 350 350 356 18 74 78 68 34 17 9 3 2 5 0 355 354 352 350 348 347 345 342 340 336 334 331 329 328 326 323 316 310 306 303 299 296 292 290 289 286 283 283
327 334 332 323 325 322 337 332 345 3 31 52 54 34 16 11 6 2 2 358 357 353 351 354 355 350 347 343 338 333 330 326 327 325 324 322 321 316 312 309 304 299 297 293 291 289 286 284 280
327 321 328 327 324 328 340 344 358 9 39 48 34 23 12 1 6 358 356 359 355 351 351 354 353 351 346 341 337 334 330 328 325 323 319 317 316 315 311 307 304 297 295 292 291 289 287 285 281
324 322 321 324 329 331 340 337 351 357 22 23 29 21 1 355 357 357 0 355 351 352 355 359 355 351 347 343 340 336 334 329 324 321 317 315 314 311 308 306 302 298 290 289 289 288 285 284 283
323 323 317 320 324 323 337 341 346 5 58 35 19 4 359 356 354 354 351 349 352 356 357 358 351 347 346 343 340 337 334 331 327 324 320 316 313 309 306 303 301 300 292 287 285 285 283 283 283
330 325 320 318 322 327 333 337 346 16 28 23 12 358 353 349 351 356 352 357 356 358 356 351 348 346 344 341 337 335 333 330 326 323 321 317 313 309 305 301 298 297 295 287 284 283 280 280 281
321 315 327 326 328 324 332 339 349 2 3 0 352 346 345 347 353 355 357 355 356 354 348 347 345 344 341 338 336 333 331 329 325 322 320 317 314 310 305 300 294 292 294 291 284 278 274 274 276
323 328 311 318 316 319 327 331 335 338 336 336 341 341 343 347 354 359 357 357 355 349 346 345 344 341 339 337 335 332 330 328 325 323 318 316 314 312 304 299 293 290 290 290 284 275 273 272 273
313 301 310 318 320 319 319 325 336 331 330 332 340 342 347 349 357 356 359 357 352 345 343 342 341 338 335 335 333 332 332 331 329 324 318 313 310 308 308 299 292 287 286 286 282 273 272 273 274
310 305 308 306 310 316 320 319 328 327 331 339 344 349 351 350 355 360 356 352 347 342 340 340 338 336 335 335 334 335 335 335 332 330 325 316 306 304 303 299 292 287 284 282 280 274 271 273 276